Temperature
13 13 13 13 13 13 12 12 13 13 13 12 12 11 11 11 11 11 11 11 11 11 11 11 11 11 11 11 11 11 11 11 10 10 10 10 10 10
13 13 13 13 13 13 12 12 12 12 13 12 12 11 11 11 11 11 11 11 11 11 11 11 11 11 11 11 11 11 10 10 10 10 10 10 10 10
13 13 13 13 12 13 12 12 12 12 12 12 11 11 11 11 11 11 11 11 11 11 11 11 10 10 10 10 10 10 10 10 10 10 10 10 10 10
13 13 13 13 12 12 12 12 12 12 12 12 12 11 11 11 11 11 11 11 10 11 11 11 10 10 10 10 10 10 10 10 10 10 10 9 9 9
13 13 12 12 12 12 12 12 12 12 12 12 12 11 11 11 11 11 11 10 10 11 11 11 10 10 10 10 10 10 10 10 10 9 9 9 9 9
13 12 12 12 12 12 12 12 12 12 12 11 11 11 11 11 11 11 10 10 10 10 10 10 10 10 10 10 10 10 10 10 9 9 9 9 9 9
12 12 12 12 12 12 12 12 12 12 12 11 11 11 11 11 11 11 10 10 10 10 10 10 10 10 10 10 10 10 10 9 9 9 9 9 9 9
12 12 12 12 12 12 12 12 12 11 11 11 11 11 11 11 11 11 10 10 10 10 10 10 10 10 10 9 10 10 9 9 9 9 9 9 9 9
12 12 12 12 12 12 12 12 12 11 11 11 11 11 11 11 11 10 10 10 10 10 10 9 10 10 9 9 10 9 9 9 9 9 9 9 9 9
11 11 11 11 11 11 11 11 11 11 11 11 11 11 11 10 10 10 10 10 9 9 9 9 9 9 9 9 9 9 9 9 9 9 9 9 9 9
11 11 11 11 11 11 11 11 11 11 11 11 11 10 11 10 10 10 9 9 9 9 9 9 9 9 9 9 9 9 9 9 9 9 9 8 8 8
11 10 11 11 11 11 10 10 10 10 10 10 10 10 10 10 10 10 9 9 9 9 9 9 9 8 8 9 9 9 9 9 9 9 8 8 8 8
10 10 10 10 10 10 10 10 10 10 10 9 9 9 9 9 9 9 9 9 9 9 9 9 8 8 8 8 8 9 9 9 8 8 8 8 8 8
10 10 10 10 10 10 10 10 10 9 9 9 9 9 9 9 9 9 9 9 9 8 8 8 8 8 8 8 8 8 8 8 8 8 8 8 8 8
9 9 10 10 9 9 9 9 9 9 9 9 9 9 9 8 8 8 8 8 8 8 8 8 8 8 7 7 8 8 8 8 8 8 8 8 8 7
9 9 9 9 9 9 9 9 9 9 8 8 8 8 8 8 8 8 8 8 8 8 8 8 8 7 7 7 7 7 7 7 8 8 8 7 7 7
8 8 8 8 8 8 8 8 8 8 8 8 8 7 7 7 7 7 7 7 7 7 7 7 7 7 7 7 7 7 7 7 7 7 7 7 7 7
8 8 8 8 8 8 8 7 8 7 7 7 7 7 7 7 7 7 7 7 7 7 7 7 7 7 6 7 7 7 6 6 7 7 7 7 7 7
7 7 7 7 7 7 7 7 7 7 7 7 7 7 7 6 6 6 6 6 6 6 6 6 6 6 6 6 7 7 6 6 6 6 6 6 6 7
6 6 6 6 6 6 6 6 6 6 6 6 6 6 6 6 6 6 6 6 6 6 6 5 5 6 5 6 6 6 6 6 6 6 6 6 6 6
6 6 6 6 6 6 6 6 6 6 6 6 6 6 6 6 5 5 5 5 5 5 5 5 5 5 5 5 5 5 5 5 5 5 5 5 5 5
5 5 5 5 5 5 5 5 5 5 5 5 5 5 5 5 5 5 5 5 5 5 5 5 5 5 4 4 4 5 5 5 5 5 5 5 4 4
4 4 4 4 4 4 4 4 4 4 5 5 5 5 5 4 4 4 4 4 4 4 4 4 4 4 4 4 4 4 4 4 4 4 4 4 4 4
Wind_Speed
3 4 3 2 3 3 3 4 3 2 1 1 1 1 1 1 2 2 2 5 3 3 2 3 4 4 4 5 5 5 4 4 4 4 4 5 5 5
3 4 3 3 2 3 3 3 3 3 2 1 1 1 2 2 2 2 2 5 2 2 2 3 4 4 4 5 5 5 5 4 4 4 4 4 4 4
5 5 5 4 3 3 3 3 3 3 3 2 2 2 2 2 3 3 2 3 3 4 3 3 3 3 3 3 3 4 4 4 3 3 3 3 3 2
6 5 5 4 5 4 4 4 4 4 4 3 3 3 3 3 2 3 3 2 2 4 4 3 2 3 3 3 3 3 3 2 2 2 1 1 1 1
6 6 6 6 6 5 5 5 5 4 4 4 3 2 3 3 3 3 3 2 2 3 4 4 4 4 5 4 4 4 3 3 2 2 2 1 1 1
6 7 7 7 7 6 6 6 5 5 5 5 4 3 3 3 4 3 3 3 3 3 3 3 4 5 6 6 6 5 5 5 4 4 4 3 3 3
6 6 6 5 5 5 5 6 6 5 5 5 5 5 4 4 4 4 4 3 3 3 3 3 4 4 6 7 8 7 7 7 6 6 6 5 5 4
7 7 6 5 6 7 6 6 7 7 7 6 6 6 6 6 5 5 5 5 3 3 4 3 3 4 4 5 6 8 8 7 7 7 7 6 6 6
7 6 5 5 6 6 7 9 9 9 8 8 8 7 6 6 6 7 6 6 5 3 4 4 4 5 4 4 7 8 8 8 8 8 8 7 7 7
7 7 7 7 6 6 6 7 8 9 9 9 8 8 6 5 6 6 6 6 5 4 4 5 4 4 4 4 7 9 9 9 9 9 9 9 8 8
7 7 7 7 5 6 7 7 7 6 6 8 7 5 3 3 5 5 5 6 5 5 5 4 4 4 5 5 7 11 11 11 10 10 10 10 10 10
6 6 6 7 4 6 7 7 7 6 5 5 6 6 6 7 9 8 7 7 6 5 5 5 5 4 4 5 5 7 9 11 12 12 12 11 11 9
5 5 4 5 6 7 8 7 6 5 5 6 5 5 5 5 6 7 7 7 7 6 4 6 5 6 5 4 4 5 6 7 9 10 12 13 13 11
5 5 4 5 6 7 6 5 4 5 5 5 5 5 5 5 5 6 7 7 8 7 6 7 6 6 6 6 5 4 5 6 7 7 8 11 13 15
5 4 3 4 5 6 6 6 6 5 5 6 6 5 5 5 5 4 5 5 6 6 6 7 6 6 7 8 7 5 5 6 7 7 7 7 8 9
5 4 5 6 6 5 4 5 5 5 6 6 5 5 4 4 5 4 5 5 5 4 5 7 8 7 7 8 8 7 6 5 5 7 7 7 8 10
4 3 3 4 4 4 4 5 5 5 6 6 5 5 5 5 5 5 5 5 6 5 5 4 5 6 7 7 8 8 7 7 6 6 7 7 8 9
4 4 4 4 4 4 5 5 5 5 5 5 6 6 6 6 5 5 5 6 6 6 5 4 4 4 5 6 8 9 8 7 6 6 7 8 9 8
4 5 4 4 5 5 5 5 5 5 5 5 6 6 6 6 6 6 6 6 7 7 6 5 5 6 7 8 6 10 8 7 6 6 7 7 8 8
5 5 5 5 5 5 5 5 5 5 5 5 6 6 6 6 6 7 7 7 7 7 7 6 6 8 8 8 7 6 11 9 7 8 8 7 7 8
5 5 5 5 5 5 5 5 5 5 5 5 5 6 6 6 7 7 7 7 8 7 8 8 7 7 6 5 6 7 6 10 10 8 7 7 7 7
5 5 5 6 5 5 5 5 5 5 6 6 6 6 6 6 7 8 7 7 7 8 9 7 5 5 6 8 9 8 7 6 9 12 11 10 6 6
5 5 5 5 5 5 5 6 7 6 6 6 6 6 6 7 7 7 7 8 8 8 7 7 6 6 7 8 9 8 8 8 6 6 8 11 13 12
Wind_Direction
242 236 236 235 229 228 230 238 257 266 242 169 180 176 189 169 145 182 136 105 99 90 78 89 95 94 97 95 97 93 89 86 87 94 95 88 89 85
238 245 235 231 225 225 227 233 251 264 269 169 186 183 182 190 164 191 133 118 130 125 109 120 120 111 105 100 96 97 92 88 82 83 84 80 87 79
227 232 232 227 220 217 218 224 232 241 243 240 202 196 203 209 176 197 201 205 178 158 153 147 148 144 132 123 117 111 103 97 95 88 87 92 85 76
234 234 233 220 227 223 216 221 223 228 236 243 214 204 217 217 209 210 210 209 206 148 162 174 178 179 171 164 151 145 139 125 125 121 115 117 116 74
234 238 238 230 228 223 222 227 223 219 228 238 230 201 216 213 214 218 221 217 222 180 180 194 200 204 196 192 186 183 183 180 178 186 203 220 230 241
238 242 242 237 237 231 225 229 224 219 218 227 228 216 215 211 216 222 224 215 223 212 197 199 198 205 206 204 203 203 205 207 209 211 217 227 242 245
240 245 246 246 256 249 242 233 223 222 217 222 227 224 221 210 220 220 223 223 225 220 215 213 206 214 211 210 209 211 212 215 218 218 219 225 232 240
241 244 240 231 229 224 233 244 243 233 226 224 232 232 233 226 222 222 224 226 235 209 222 234 218 226 221 217 192 195 206 213 215 217 220 222 228 236
245 246 242 235 227 233 219 220 230 239 245 241 239 243 242 232 218 220 224 231 240 221 216 237 227 234 227 213 183 197 207 213 215 216 219 221 226 233
242 244 241 237 224 229 233 231 233 230 227 235 245 251 252 242 229 230 229 231 239 221 211 243 234 234 229 218 187 199 209 214 218 221 221 224 228 232
242 240 239 239 217 217 229 235 237 236 224 230 252 258 267 245 234 229 221 220 234 231 214 234 242 239 237 227 202 200 209 214 220 224 225 226 228 231
244 239 231 238 216 208 227 234 237 238 233 224 226 228 229 219 215 225 226 229 236 235 207 217 232 229 240 227 217 210 213 217 220 223 226 229 231 234
245 238 231 205 213 221 235 241 242 246 242 237 234 229 225 223 217 222 228 234 238 240 209 203 231 231 244 242 230 224 222 223 222 225 225 224 225 228
253 248 232 184 206 221 230 238 234 238 237 235 231 230 228 226 227 224 227 232 242 248 228 213 230 232 238 244 246 228 226 228 229 231 229 220 221 224
254 265 257 220 223 225 220 214 217 230 231 233 234 235 237 236 229 225 230 233 241 244 239 227 231 235 241 248 250 244 244 237 227 235 237 230 227 226
252 237 218 223 230 237 227 214 224 229 231 237 240 239 236 233 231 227 225 221 228 235 232 233 235 237 242 249 254 252 246 242 232 234 238 240 237 233
263 250 241 234 230 227 228 229 230 227 228 234 236 235 232 232 233 228 229 226 230 237 231 228 232 234 245 252 251 252 250 247 245 237 235 242 242 238
248 245 241 239 240 239 237 235 234 234 235 235 237 237 237 238 236 232 229 230 236 240 240 230 220 227 242 250 240 249 248 246 245 242 238 242 246 241
234 242 243 242 244 243 244 245 244 241 239 237 237 240 241 241 240 237 234 235 239 243 242 233 226 227 241 255 238 216 240 248 245 243 242 244 251 251
242 244 243 243 244 245 244 247 251 248 243 240 239 239 240 240 239 240 238 238 240 242 241 234 231 233 242 258 267 252 223 237 242 246 249 251 258 265
245 249 252 251 249 246 246 245 246 248 245 243 243 242 240 239 240 242 243 240 243 245 244 243 241 238 251 261 262 257 244 228 240 247 249 251 255 256
255 253 253 254 251 248 247 244 243 241 241 242 243 241 241 243 245 246 247 246 244 247 252 254 243 232 235 241 250 259 260 252 239 239 246 248 251 249
263 266 263 255 248 246 244 244 245 245 242 242 243 243 242 242 245 248 250 250 251 250 252 251 244 239 241 245 252 255 257 257 255 249 246 239 244 261
Height
1551 1551 1551 1551 1551 1551 1551 1552 1553 1552 1552 1551 1550 1549 1548 1548 1547 1547 1546 1545 1544 1543 1542 1542 1542 1541 1541 1542 1542 1542 1542 1542 1542 1542 1542 1542 1542 1542
1549 1549 1549 1550 1549 1549 1549 1550 1550 1551 1550 1550 1549 1548 1547 1547 1546 1546 1546 1544 1544 1543 1542 1542 1542 1542 1542 1542 1542 1542 1542 1542 1542 1542 1542 1542 1542 1542
1547 1547 1547 1547 1548 1548 1548 1548 1548 1549 1549 1549 1548 1547 1546 1546 1545 1545 1545 1544 1544 1543 1543 1542 1542 1542 1542 1542 1541 1541 1541 1541 1541 1541 1541 1541 1541 1541
1545 1545 1545 1545 1545 1546 1546 1546 1546 1546 1547 1547 1546 1545 1545 1545 1544 1544 1544 1544 1543 1542 1542 1542 1541 1541 1541 1541 1541 1541 1541 1541 1541 1541 1541 1540 1540 1540
1542 1542 1543 1543 1543 1543 1543 1544 1544 1544 1544 1544 1544 1543 1543 1543 1543 1542 1542 1542 1542 1541 1541 1540 1540 1540 1540 1540 1540 1540 1540 1540 1540 1539 1539 1539 1539 1539
1539 1539 1540 1540 1540 1541 1541 1541 1541 1541 1541 1542 1542 1541 1541 1541 1540 1540 1540 1540 1540 1540 1539 1539 1538 1538 1538 1538 1538 1538 1538 1538 1538 1538 1538 1538 1537 1537
1535 1536 1536 1536 1537 1537 1537 1538 1538 1538 1538 1538 1539 1539 1538 1538 1538 1538 1538 1538 1538 1537 1537 1537 1537 1536 1536 1536 1536 1536 1536 1536 1536 1536 1536 1535 1535 1535
1531 1532 1532 1532 1532 1533 1533 1534 1535 1535 1535 1535 1535 1535 1535 1535 1535 1535 1535 1536 1535 1535 1535 1535 1534 1534 1534 1534 1533 1533 1533 1533 1533 1533 1533 1533 1533 1533
1527 1527 1527 1527 1528 1529 1529 1529 1530 1530 1531 1532 1532 1532 1532 1532 1532 1532 1532 1532 1532 1532 1532 1532 1532 1531 1531 1531 1531 1531 1531 1531 1531 1531 1531 1531 1530 1530
1522 1523 1523 1523 1523 1524 1524 1525 1525 1526 1526 1527 1528 1528 1529 1529 1529 1529 1529 1529 1529 1529 1529 1529 1529 1528 1528 1528 1527 1527 1527 1528 1528 1528 1528 1528 1528 1527
1518 1518 1518 1518 1518 1519 1520 1520 1521 1521 1522 1522 1523 1523 1523 1524 1524 1524 1525 1525 1525 1525 1525 1525 1525 1525 1525 1524 1524 1524 1524 1524 1524 1524 1524 1524 1524 1524
1512 1512 1513 1513 1514 1514 1515 1516 1516 1517 1517 1518 1518 1518 1518 1518 1519 1520 1520 1521 1521 1521 1521 1521 1521 1522 1521 1521 1520 1520 1520 1520 1520 1520 1520 1520 1520 1520
1508 1508 1508 1508 1509 1510 1510 1511 1511 1512 1513 1513 1513 1513 1513 1513 1514 1514 1515 1516 1517 1517 1517 1517 1517 1517 1518 1517 1516 1516 1516 1516 1516 1515 1516 1516 1516 1516
1504 1504 1504 1504 1504 1505 1506 1506 1507 1508 1508 1508 1508 1508 1508 1509 1509 1509 1510 1510 1511 1512 1512 1512 1512 1513 1513 1513 1512 1512 1512 1511 1511 1511 1511 1511 1511 1511
1500 1500 1500 1500 1500 1501 1501 1502 1503 1503 1503 1503 1503 1504 1504 1504 1504 1504 1504 1505 1505 1506 1506 1506 1507 1507 1508 1508 1508 1507 1507 1506 1506 1506 1506 1506 1506 1506
1495 1495 1495 1496 1496 1496 1497 1497 1498 1498 1498 1499 1499 1499 1499 1499 1499 1499 1499 1499 1500 1500 1500 1501 1501 1502 1502 1502 1502 1502 1502 1501 1501 1501 1501 1501 1500 1500
1491 1491 1491 1491 1491 1492 1492 1493 1493 1493 1494 1494 1494 1495 1495 1495 1495 1495 1495 1495 1494 1494 1495 1495 1495 1496 1496 1496 1496 1496 1496 1496 1495 1495 1495 1494 1494 1495
1487 1486 1486 1486 1487 1487 1488 1488 1488 1489 1489 1489 1489 1490 1490 1490 1490 1490 1490 1490 1489 1490 1490 1490 1489 1490 1490 1490 1490 1490 1490 1489 1489 1489 1489 1488 1488 1489
1481 1481 1481 1481 1482 1482 1483 1483 1484 1484 1484 1484 1484 1484 1484 1485 1485 1485 1485 1484 1484 1484 1485 1485 1484 1484 1484 1484 1483 1484 1484 1484 1483 1483 1483 1482 1482 1482
1475 1476 1476 1476 1477 1477 1477 1478 1478 1478 1479 1479 1479 1479 1479 1479 1479 1479 1479 1479 1479 1479 1479 1479 1478 1478 1478 1479 1478 1478 1478 1478 1477 1477 1476 1476 1476 1476
1470 1471 1471 1471 1471 1472 1472 1472 1472 1473 1473 1473 1473 1473 1473 1474 1473 1474 1474 1474 1474 1474 1473 1473 1473 1473 1473 1473 1472 1471 1472 1471 1471 1471 1470 1470 1469 1469
1465 1465 1465 1465 1465 1466 1466 1466 1466 1466 1467 1467 1467 1467 1467 1468 1468 1468 1468 1468 1468 1468 1468 1468 1467 1467 1467 1466 1466 1465 1465 1465 1464 1464 1464 1464 1463 1462
1460 1459 1459 1459 1460 1460 1460 1460 1461 1461 1461 1461 1461 1461 1461 1461 1461 1461 1462 1462 1462 1462 1462 1462 1461 1461 1460 1460 1460 1459 1459 1459 1458 1458 1458 1457 1457 1457